Regional Weather Roundup
Issued by NWS Lake Charles, LA

Home | Current Version | Previous Version | Text Only | Print | Product List | Glossary On
Versions: 1 2 3 4 5 6 7 8 9 10 11 12 13 14 15 16 17 18 19 20 21 22 23 24 25 26 27 28 29 30 31 32 33 34 35 36 37 38 39 40 41 42 43 44 45 46 47 48 49 50
000
ASUS44 KLCH 111310
RWRLCH
RWRLCH
REGIONAL WEATHER ROUNDUP
NATIONAL WEATHER SERVICE LAKE CHARLES LA
800 AM CDT FRI JUL 11 2014

Note: "fair" indicates few or no clouds below 12,000 feet with no
significant weather and/or obstructions to visibility.


ACROSS SOUTHEAST TEXAS

CITY           SKY/WX    TMP DP  RH WIND       PRES   REMARKS
BEAUMONT       SUNNY     82  77  84 CALM      30.12R
BEAUMONT CITY    N/A     76  75  94 CALM      30.13R
ORANGE         SUNNY     76  76 100 CALM      30.14R
JASPER         SUNNY     71  69  95 CALM      30.16R
$$

ACROSS CENTRAL LOUISIANA

CITY           SKY/WX    TMP DP  RH WIND       PRES   REMARKS
LEESVILLE      MOSUNNY   78  73  84 W3        30.15R
FULLERTON        N/A     80  73  79 CALM      30.13R
ALEXANDRIA INT SUNNY     77  74  90 CALM      30.13R
ESLER FIELD    SUNNY     78  74  87 CALM      30.15R
DERIDDER       CLOUDY    76  72  87 CALM      30.16R
OAKDALE        SUNNY     76  74  92 CALM      30.15R
OPELOUSAS        N/A     77  75  93 CALM      30.15R
$$

ACROSS SOUTHWEST AND SOUTH CENTRAL LOUISIANA

CITY           SKY/WX    TMP DP  RH WIND       PRES   REMARKS
SULPHUR        SUNNY     80  79  97 CALM      30.14R
LAKE CHARLES   SUNNY     80  76  87 CALM      30.13R FOG
CHENNAULT INT  SUNNY     79  75  89 CALM      30.14R
CAMERON PHI    MOSUNNY   82  77  83 NW3       30.14R
DEQUINCY         N/A     74  72  92 CALM      30.14R
JENNINGS         N/A     78  76  93 CALM      30.14R
LAFAYETTE      SUNNY     79  75  87 CALM      30.14R
NEW IBERIA     SUNNY     81  76  84 N3        30.15R
ABBEVILLE        N/A     79  76  91 CALM      30.14R
PATTERSON      SUNNY     81  79  94 CALM      30.18R
SALT POINT       N/A     83  78  85 CALM      30.13R
$$

SELECTED SITES ACROSS THE REGION

CITY           SKY/WX    TMP DP  RH WIND       PRES   REMARKS
HOUSTON BUSH   MOSUNNY   77  72  84 E6        30.10S
HOUSTON HOBBY  MOSUNNY   80  73  79 E3        30.10R
GALVESTON      MOSUNNY   85  76  74 S8        30.11R
COLLEGE STAT   SUNNY     74  67  78 E3        30.13R
CONROE         SUNNY     74  72  93 CALM      30.12R
HUNTSVILLE     SUNNY     74  69  85 CALM      30.12R
LUFKIN         SUNNY     78  71  79 CALM      30.15R
SHREVEPORT     MOSUNNY   78  72  81 SW6       30.12R
MONROE         SUNNY     76  73  91 CALM      30.14R
NATCHEZ MS     SUNNY     75  72  88 CALM      30.16R
BATON ROUGE    SUNNY     80  74  81 CALM      30.14R
N.O. INTL ARPT MOSUNNY   82  76  81 NW6       30.14R
SLIDELL        SUNNY     76  72  87 N3        30.14R
$$

MARINE REPORTS

STATION/POSITION TIME  TEMP    WIND        PRES    VSBY  WAVE
                       AIR SEA DIR/SP/G                  HT/PER
                 (UTC) (F)     (DEG/KT/KT) (MB)    (MI)  (FT/S)
BUOY 30 S HIGH I 1200   84     170/ 12     1018.7
SEA RIM ST PARK  1300   84     190/  5/  6 1020.4R
PORT ARTHUR      1300      87  140/  2/  2 1020.0R
SABINE PASS N    1300   85 87  140/  4/  6 1020.0R
TEXAS POINT      1300   84 87  130/  6/  7 1020.1R
CALCASIEU PASS   1300   83 85   50/  3/  4 1021.3R
LK CHARLES BEACH 1300   81 87              1021.0R
MARSH ISLAND     1200   84     360/  3/  4   N/A
FRESH WATER LOCK 1300   81 88   30/  3/  4 1020.4R
AMERADA PASS     1300   81 83   80/  2/  3 1020.4R
$$



USA.gov is the U.S. government's official web portal to all federal, state and local government web resources and services.